Погода в Чапыгах

Россия / Костромская область     57°42′00″N   43°13′02″E
темп.,
°C
ветер,
м/с
пор.,
м/с
влажн.,
%
обл.,
%
осадки,
мм/ч
давл.,
гПа
погр.,
м
15 августа, пн
пн1500:00+16всв11822 0.0 102211
03:00+15в11865 0.0 102311
06:00+16в118119 0.0 102344
09:00+22в116080 0.0 1024432
12:00+23св115795 0.0 1024482
15:00+27сз11430 0.0 10231282
18:00+24с23583 0.0 102376
21:00+18всв11763 0.0 102411
16 августа, вт
вт1600:00+17в118010 0.0 102411
03:00+17вюв118242 0.0 102512
06:00+18юв1278100 0.0 102545
09:00+23юв235652 0.0 1025511
12:00+27юв224156 0.0 10251783
15:00+27вюв3240100 0.0 10242196
18:00+23вюв265668 0.0 1024186
21:00+18вюв236741 0.0 102455
17 августа, ср
ср1700:00+16юв22776 0.0 102533
03:00+15вюв228066 0.0 102517
06:00+16в237738 0.0 102591
09:00+22вюв245381 0.0 1024539
12:00+26юв34406 0.0 10231713
15:00+27вюв23375 0.0 10222116
18:00+24вюв24545 0.0 102193
21:00+18вюв22715 0.0 102222
18 августа, чт
чт1800:00+16юв22790 0.0 102217
03:00+15в22780 0.0 102216
06:00+16в23800 0.0 102372
09:00+23вюв24540 0.0 1023513
12:00+27вюв23400 0.0 10221918
15:00+28вюв33373 0.0 10222187
18:00+25вюв24543 0.0 1022106
21:00+19в22680 0.0 102329
19 августа, пт
пт1900:00+17вюв23760 0.0 102353
03:00+16в23765 0.0 102451
06:00+17в25750 0.0 1025111
09:00+24вюв35510 0.0 1025509
12:00+28юв45370 0.0 10242262
15:00+29юв45345 0.0 10242548
18:00+25вюв255198 0.0 1024138
21:00+21юв246195 0.0 1025101